Regional Weather Roundup
Issued by NWS Albany, NY

Home | Current Version | Previous Version | Graphics & Text | Print | Product List | Glossary Off
Versions: 1 2 3 4 5 6 7 8 9 10 11 12 13 14 15 16 17 18 19 20 21 22 23 24 25 26 27 28 29 30 31 32 33 34 35 36 37 38 39 40 41 42 43 44 45 46 47 48 49 50

000
ASUS41 KALY 301210
RWRALY

NEW YORK STATE HOURLY WEATHER ROUNDUP
NATIONAL WEATHER SERVICE ALBANY NY
800 AM EDT WED JUL 30 2014

NOTE: "FAIR" INDICATES FEW OR NO CLOUDS BELOW 12,000 FEET WITH NO
SIGNIFICANT WEATHER AND/OR NO OBSTRUCTIONS TO VISIBILITY.

NYZ032-033-038>043-046>054-057>066-NYZ062>081-301300-
EAST


CITY           SKY/WX    TMP DP  RH WIND       PRES   REMARKS
ALBANY         CLOUDY    62  54  74 CALM      30.03R
GLENS FALLS    CLOUDY    60  54  80 CALM      30.02R
POUGHKEEPSIE   MOSUNNY   63  57  81 CALM      30.03R
NEWBURGH       MOSUNNY   61  57  88 CALM      30.05R
MONTGOMERY     SUNNY     59  56  89 SW3       30.04R
WHITE PLAINS   SUNNY     64  56  75 NW6       30.03R
ISLIP          MOSUNNY   68  59  73 N5        30.00R
NEW YORK CITY  MOSUNNY   68  53  58 N5        30.02R
CENTRAL PARK   SUNNY     65  55  70 VRB3      30.06R
$$

NYZ005>009-017-018-044>046-055-056-301300-
CENTRAL


CITY           SKY/WX    TMP DP  RH WIND       PRES   REMARKS
FULTON         CLOUDY    56  53  90 CALM      30.01R
SYRACUSE       CLOUDY    60  53  77 E6        30.00S
ROME           SUNNY     55  52  89 E7        30.04R
ELMIRA         FOG       52  52 100 CALM      30.03S VSB 1/2
BINGHAMTON     SUNNY     56  52  86 CALM      30.04S
MONTICELLO     SUNNY     54  54 100 CALM      30.07R
$$

NYZ026>034-041>043-301300-
NORTH


CITY           SKY/WX    TMP DP  RH WIND       PRES   REMARKS
WATERTOWN      CLOUDY    61  51  70 VRB3      29.99R
FORT DRUM      NOT AVBL
MASSENA        CLOUDY    58  53  84 S5        29.99S
SARANAC LAKE   MOSUNNY   45  44  97 CALM      30.02R
PLATTSBURGH    CLOUDY    56  53  90 CALM      30.02R
$$

NYZ001>004-010>016-019>021-301300-
WEST


CITY           SKY/WX    TMP DP  RH WIND       PRES   REMARKS
BUFFALO        MOSUNNY   60  55  83 S9        29.97S
DUNKIRK        PTSUNNY   60  55  83 S7        29.98R
JAMESTOWN      CLOUDY    54  52  94 SW10      30.03R
WELLSVILLE     CLOUDY    56  50  80 SW7       30.04S
ROCHESTER      PTSUNNY   60  53  77 SW7       29.98S
PENN YAN       CLOUDY    58  54  86 SW8       30.01S
$$

             KEY
       WCI = WIND CHILL INDEX
       VSB = VISIBILITY
       HX  = HEAT INDEX
$$


USA.gov is the U.S. government's official web portal to all federal, state and local government web resources and services.